Regional Weather Roundup
Issued by NWS Cleveland, OH

Home | Current Version | Previous Version | Graphics & Text | Print | Product List | Glossary On
Versions: 1 2 3 4 5 6 7 8 9 10 11 12 13 14 15 16 17 18 19 20 21 22 23 24 25 26 27 28 29 30 31 32 33 34 35 36 37 38 39 40 41 42 43 44 45 46 47 48 49 50
000
ASUS41 KCLE 202302
RWRCLE
OHIO REGIONAL WEATHER ROUNDUP
NATIONAL WEATHER SERVICE CLEVELAND, OH
700 PM EDT MON APR 20 2015

NOTE: "FAIR" INDICATES FEW OR NO CLOUDS BELOW 12,000 FEET WITH NO
SIGNIFICANT WEATHER AND/OR OBSTRUCTIONS TO VISIBILITY.

OHZ001>008-015>018-024>027-034-035-043-044-210000-
   NORTHWEST OHIO

CITY           SKY/WX    TMP DP  RH WIND       PRES   REMARKS
DEFIANCE       CLOUDY    50  39  66 W13G23    29.55R
FINDLAY        CLOUDY    50  43  77 W23G32    29.55R
TOLEDO EXPRESS CLOUDY    50  41  71 W23G30    29.52R
TOLEDO EXEC    CLOUDY    52  40  63 SW26G37   29.53R
LIMA           CLOUDY    51  40  65 W21G29    29.58R
$$

OHZ009>014-019>023-028>033-038-089-210000-
   NORTHEAST OHIO

CITY           SKY/WX    TMP DP  RH WIND       PRES   REMARKS
CLE-HOPKINS    CLOUDY    56  43  61 SW25G38   29.53R
CLE-LAKEFRONT  CLOUDY    53  45  74 W17G24    29.50R
CUY CO. ARPT   CLOUDY    55  48  76 W12G23    29.51R
LORAIN-ELYRIA  LGT RAIN  54  41  61 W26G39    29.53R
ASHTABULA      CLOUDY    58  49  72 W14G21    29.50R
AKRON-CANTON   CLOUDY    61  45  55 W28G35    29.51R
WOOSTER        LGT RAIN  54  44  69 W17G32    29.55R
MANSFIELD      CLOUDY    53  41  63 SW17G24   29.55R
YOUNGSTOWN     CLOUDY    61  50  67 SW10G20   29.49R
$$

OHZ042-051>053-060>062-070>072-077>081-210000-
  SOUTHWEST OHIO

CITY           SKY/WX    TMP DP  RH WIND       PRES   REMARKS
CINC-COVINGTON CLOUDY    55  37  50 W24G35    29.66R
CINC-LUNKEN    PTSUNNY   57  40  52 W17G29    29.65R
HAMILTON       RAIN      51  43  74 W16G35    29.67R
DAYTON         PTSUNNY   54  39  57 W21G29    29.62R
WRIGHT-PAT AFB PTSUNNY   54  42  63 W15G23    29.61R
DAYTON GENERAL PTSUNNY   55  41  59 W12G22    29.62R
WILMINGTON     CLOUDY    55  40  56 W17G24    29.61R
$$

OHZ036-037-039>041-045>050-054>059-063>069-073>076-082>088-210000-
  CENTRAL AND SOUTHEAST OHIO

CITY           SKY/WX    TMP DP  RH WIND       PRES   REMARKS
COLUMBUS       CLOUDY    56  41  57 W17G24    29.58R
OSU AIRPORT    CLOUDY    55  41  59 W20G28    29.58S
BOLTON FIELD   CLOUDY    55  43  62 SW12      29.60R
RICKENBACK AFB NOT AVBL
NEWARK         CLOUDY    56  42  59 W20G32    29.58R
MARION         CLOUDY    53  40  61 W18G31    29.57R
LANCASTER      CLOUDY    56  43  61 W13G29    29.61R
ZANESVILLE     LGT RAIN  57  53  86 SW7       29.56R
NEW PHILLY     LGT RAIN  60  55  83 S6        29.54R
$$


USA.gov is the U.S. government's official web portal to all federal, state and local government web resources and services.